| time (UTC) | temp F | wind direction | speed MPH | gust MPH | rain 1hr in | rain 24hr in | rain mn in | humidity % | barometer mb |
| 20260504010048 | 42 | 263 | 2.0 | 7.0 | 0.00 | 0.02 | 0.00 | 54 | 1007.4 |
| 20260504004618 | 43 | 270 | 4.0 | 9.0 | 0.00 | 0.06 | 0.00 | 50 | 1007.2 |
| 20260504003051 | 44 | 257 | 5.0 | 10.0 | 0.00 | 0.06 | 0.00 | 50 | 1007.0 |
| 20260504001617 | 44 | 273 | 4.0 | 8.0 | 0.00 | 0.06 | 0.00 | 50 | 1006.9 |
| 20260504000049 | 45 | 310 | 4.0 | 10.0 | 0.00 | 0.06 | 0.00 | 47 | 1006.6 |
| 20260503234547 | 46 | 319 | 9.0 | 16.0 | 0.00 | 0.09 | 0.00 | 45 | 1006.3 |
| 20260503233049 | 46 | 284 | 9.0 | 19.0 | 0.00 | 0.09 | 0.00 | 44 | 1006.2 |
| 20260503231541 | 47 | 315 | 12.0 | 21.0 | 0.00 | 0.09 | 0.00 | 41 | 1005.9 |
| 20260503230107 | 47 | 279 | 7.0 | 18.0 | 0.00 | 0.09 | 0.00 | 42 | 1005.8 |
| 20260503224546 | 48 | 307 | 17.0 | 28.0 | 0.00 | 0.10 | 0.00 | 39 | 1005.5 |
| 20260503223045 | 48 | 310 | 11.0 | 23.0 | 0.00 | 0.10 | 0.00 | 39 | 1005.1 |
| 20260503221545 | 48 | 315 | 13.0 | 26.0 | 0.00 | 0.10 | 0.00 | 39 | 1005.2 |
| 20260503220048 | 49 | 335 | 10.0 | 21.0 | 0.00 | 0.10 | 0.00 | 41 | 1004.9 |
| 20260503214555 | 48 | 355 | 12.0 | 19.0 | 0.00 | 0.12 | 0.00 | 41 | 1004.8 |
| 20260503213047 | 48 | 311 | 9.0 | 19.0 | 0.00 | 0.12 | 0.00 | 42 | 1004.7 |
| 20260503211548 | 49 | 302 | 10.0 | 20.0 | 0.00 | 0.12 | 0.00 | 43 | 1004.6 |
| 20260503210046 | 49 | 312 | 9.0 | 19.0 | 0.00 | 0.12 | 0.00 | 44 | 1004.3 |
| 20260503204545 | 48 | 298 | 15.0 | 24.0 | 0.00 | 0.19 | 0.00 | 43 | 1004.2 |
| 20260503203102 | 49 | 328 | 12.0 | 21.0 | 0.00 | 0.19 | 0.00 | 46 | 1004.0 |
| 20260503201541 | 50 | 289 | 12.0 | 20.0 | 0.00 | 0.19 | 0.00 | 43 | 1003.9 |
| 20260503200049 | 50 | 315 | 8.0 | 20.0 | 0.00 | 0.19 | 0.00 | 45 | 1003.9 |
| 20260503194547 | 49 | 355 | 11.0 | 20.0 | 0.00 | 0.28 | 0.00 | 47 | 1004.1 |
| 20260503193045 | 49 | 300 | 10.0 | 21.0 | 0.00 | 0.28 | 0.00 | 46 | 1004.0 |
| 20260503191547 | 50 | 305 | 8.0 | 19.0 | 0.00 | 0.28 | 0.00 | 52 | 1004.2 |
| 20260503190044 | 50 | 310 | 10.0 | 19.0 | 0.00 | 0.28 | 0.00 | 51 | 1004.3 |
| 20260503184540 | 49 | 360 | 12.0 | 20.0 | 0.00 | 0.34 | 0.00 | 52 | 1004.3 |
| 20260503183047 | 49 | 285 | 9.0 | 21.0 | 0.00 | 0.34 | 0.00 | 51 | 1004.3 |
| 20260503181557 | 49 | 332 | 10.0 | 17.0 | 0.00 | 0.34 | 0.00 | 51 | 1004.3 |
| 20260503180053 | 48 | 338 | 9.0 | 16.0 | 0.00 | 0.34 | 0.00 | 54 | 1004.4 |
| 20260503174546 | 48 | 298 | 5.0 | 13.0 | 0.00 | 0.36 | 0.00 | 62 | 1004.4 |
| 20260503173044 | 47 | 355 | 5.0 | 11.0 | 0.00 | 0.36 | 0.00 | 63 | 1004.5 |
| 20260503171540 | 46 | 314 | 8.0 | 14.0 | 0.00 | 0.36 | 0.00 | 63 | 1004.5 |
| 20260503081550 | 49 | 5 | 1.0 | 3.0 | 0.00 | 0.44 | 0.00 | 100 | 1007.1 |
| 20260503071546 | 50 | 321 | 2.0 | 9.0 | 0.00 | 0.44 | 0.00 | 100 | 1007.8 |
| 20260503060110 | 50 | 16 | 0.0 | 2.0 | 0.00 | 0.44 | 0.00 | 100 | 1008.3 |
| 20260503054600 | 50 | 98 | 0.0 | 4.0 | 0.00 | 0.44 | 0.00 | 100 | 1008.4 |
| 20260503053046 | 50 | 0 | 0.0 | 3.0 | 0.00 | 0.44 | 0.00 | 100 | 1008.5 |
| 20260503051542 | 50 | 97 | 1.0 | 3.0 | 0.00 | 0.44 | 0.00 | 100 | 1008.8 |
| 20260503050040 | 50 | 10 | 1.0 | 4.0 | 0.00 | 0.44 | 0.00 | 100 | 1009.1 |
| 20260503044549 | 50 | 341 | 3.0 | 6.0 | 0.00 | 0.44 | 0.00 | 100 | 1009.3 |
| 20260503043049 | 50 | 321 | 3.0 | 5.0 | 0.00 | 0.44 | 0.00 | 100 | 1009.5 |
| 20260503041543 | 50 | 284 | 3.0 | 4.0 | 0.00 | 0.44 | 0.00 | 100 | 1009.9 |
| 20260503040044 | 50 | 331 | 4.0 | 7.0 | 0.00 | 0.44 | 0.00 | 100 | 1009.8 |
| 20260503034541 | 50 | 296 | 1.0 | 3.0 | 0.00 | 0.44 | 0.44 | 100 | 1009.8 |
| 20260503033048 | 50 | 74 | 0.0 | 4.0 | 0.00 | 0.44 | 0.44 | 100 | 1009.6 |
| 20260503031547 | 50 | 5 | 1.0 | 4.0 | 0.00 | 0.44 | 0.44 | 100 | 1009.3 |
| 20260503030048 | 50 | 355 | 1.0 | 4.0 | 0.00 | 0.44 | 0.44 | 100 | 1009.8 |
| 20260503024547 | 50 | 41 | 0.0 | 3.0 | 0.01 | 0.44 | 0.44 | 100 | 1009.8 |
| 20260503023040 | 50 | 0 | 0.0 | 3.0 | 0.01 | 0.44 | 0.44 | 100 | 1009.8 |
| 20260503021542 | 50 | 325 | 1.0 | 4.0 | 0.01 | 0.44 | 0.44 | 100 | 1009.8 |
| 20260503020048 | 50 | 5 | 0.0 | 3.0 | 0.02 | 0.44 | 0.44 | 100 | 1010.4 |
| 20260503014547 | 50 | 0 | 0.0 | 2.0 | 0.02 | 0.43 | 0.43 | 100 | 1010.6 |
| 20260503013045 | 50 | 0 | 0.0 | 3.0 | 0.03 | 0.43 | 0.43 | 100 | 1010.6 |
| 20260503011546 | 50 | 348 | 0.0 | 2.0 | 0.03 | 0.43 | 0.43 | 100 | 1010.6 |